Location: Asheville, NC
(35.6000°N, 82.5500°W)
Time: 20:17:30
(UTC-04:00)

Vanguard 1 - Pass Details

Date: 15 March 2018
Orbit: 650 x 3833 km, 34.3° (Epoch: 24 June)

Event Time Altitude Azimuth Distance (km) Brightness Sun altitude
Rises 13:17:17 0° 275° (W) 7,898 14.6 52.1°
Reaches altitude 10° 13:22:37 10° 275° (W) 6,935 14.4 52.3°
Maximum altitude 13:46:13 82° 192° (SSW) 3,250 14.0 52.4°
Drops below altitude 10° 14:01:23 10° 107° (ESE) 4,773 13.8 52.1°
Sets 14:04:17 0° 107° (ESE) 5,444 13.9 52.0°
